Find Starlink 34007

NORAD ID: 63868 Int'l Des: 2025-094 Owner: SPXS Country: US Constellation: starlink operational
LEOCIRCULAR

Live Position

Loading 3D Globe...

About Starlink 34007

Description loading...

Upcoming Passes

Passes for default location (London). Set your location on the main map for personalized predictions.

Altitude History

Loading altitude history...

Two-Line Element Set

1 63868U 25094E 26107.17536509 .00003068 00000-0 26478-3 0 9990
2 63868 70.0003 137.5985 0003523 269.0689 91.0066 14.98337290 52964
Epoch: Apr 17, 2026 • Age: 11 hours

Current Status

Altitude 582.3 km
Velocity 7.57 km/s
Sub-Earth Point 53.50°N, 84.62°E
Launch Date May 10, 2025
Age 0.9 years
Type internet

Technical Details

Classification Payload
Mass 575.00 kg
Dry Mass 530.00 kg
Total Mass 575.00 kg
Length 0.30 m
Diameter 4.10 m
Span 29.00 m
Shape Box + pan
Manufacturer SPXS
Bus Type Starlink V2MO
Phase Status In Orbit
Owner/State SPXS/US

Most Searched